Location: Cutler
(25.6150°N, 80.3110°W)
Time: 03:11:08
(UTC-05:00)

Vanguard 1 - Pass Details

Date: 24 January 2018
Orbit: 650 x 3833 km, 34.2° (Epoch: 23 February)

Event Time Altitude Azimuth Distance (km) Brightness Sun altitude
Rises 21:00:23 0° 231° (SW) 2,945 13.2 -40.6°
Enters shadow 21:01:50 - 229° (SW) 2,341 12.5 -40.9°
Reaches altitude 10° 21:02:33 10° 227° (SW) 2,052 - -41.1°
Maximum altitude 21:06:54 55° 148° (SSE) 882 - -42.1°
Drops below altitude 10° 21:12:48 10° 71° (ENE) 2,765 - -43.4°
Sets 21:16:10 0° 68° (ENE) 4,106 - -44.1°
